Hourly Data Report for November 09, 2021

MOUNT FOREST (AUT)
ONTARIO
Current Station Operator: ECCC - MSC

43°59'00.000" N
80°45'00.000" W
414.50 m
6145504
71631
WLS

Download Data

Hourly Data (November 2021)
Hourly Data Report for November 9, 2021
TIME
LST
Temp Definition
°C
Dew Point Definition
°C
Rel Hum Definition
%
Precip. Amount Definition
mm

Wind Dir Definition
10's deg

Wind Spd Definition
km/h
Visibility Definition
km
Stn Press Definition
kPa
Hmdx Definition


Wind Chill Definition


Weather Definition


00:00 6.1 4.3 88 0.0 20 3   96.95     LegendNANA
01:00 5.8 4.3 90 0.0 34 4   96.97     LegendNANA
02:00 8.4 7.0 91 0.0 33 9   97.04     LegendNANA
03:00 7.6 6.8 95 0.0 34 6   97.06     LegendNANA
04:00 6.9 6.3 96 0.0 35 6   97.05     LegendNANA
05:00 6.3 5.9 97 0.0 0 1   97.08     LegendNANA
06:00 5.1 4.8 98 0.0 31 4   97.10     LegendNANA
07:00 4.6 4.4 98 0.0 29 2   97.16     LegendNANA
08:00 4.6 4.3 98 0.0 2 3   97.21     LegendNANA
09:00 6.1 5.8 98 0.0 5 3   97.20     LegendNANA
10:00 7.5 6.5 93 0.0 2 6   97.17     LegendNANA
11:00 8.4 6.7 89 0.0 36 3   97.18     LegendNANA
12:00 9.0 6.7 86 0.0 4 5   97.13     LegendNANA
13:00 8.9 7.1 88 0.0 34 3   97.10     LegendNANA
14:00 9.2 7.0 86 0.0 19 4   97.06     LegendNANA
15:00 8.8 7.2 89 0.0 29 3   97.06     LegendNANA
16:00 8.1 6.8 91 0.0 31 4   97.04     LegendNANA
17:00 7.5 6.4 92 0.0   0   97.05     LegendNANA
18:00 7.5 6.7 94 0.0   0   97.02     LegendNANA
19:00 6.7 6.2 96 0.1 2 7   96.95     LegendNANA
20:00 6.9 6.2 96 0.0 25 4   96.93     LegendNANA
21:00 6.1 5.7 97 0.0 24 3   96.92     LegendNANA
22:00 5.4 5.1 98 0.0 30 6   96.99     LegendNANA
23:00 3.9 3.6 98 0.0 27 4   96.97     LegendNANA

Notes on Data Quality.

Legend

  • E = Estimated
  • M = Missing
  • NA = Not Available*
  • [empty] = Indicates an unobserved value
Date modified: